TimeMST,TemperatureF,Dew PointF,Humidity,Sea Level PressureIn,VisibilityMPH,Wind Direction,Wind SpeedMPH,Gust SpeedMPH,PrecipitationIn,Events,Conditions,WindDirDegrees,DateUTC
12:53 AM,33.1,21.0,61,30.00,10.0,Calm,Calm,-,N/A,,Clear,0,2012-02-17 07:53:00
1:53 AM,33.1,19.9,59,30.01,10.0,Calm,Calm,-,N/A,,Clear,0,2012-02-17 08:53:00
2:53 AM,33.8,21.2,60,30.08,10.0,West,6.9,-,N/A,,Clear,280,2012-02-17 09:53:00
3:53 AM,32.0,19.9,61,30.02,10.0,WNW,8.1,-,N/A,,Clear,290,2012-02-17 10:53:00
4:53 AM,30.9,19.0,61,30.03,10.0,West,3.5,-,N/A,,Clear,270,2012-02-17 11:53:00
5:53 AM,32.0,19.9,61,30.04,10.0,WSW,6.9,-,N/A,,Clear,250,2012-02-17 12:53:00
6:53 AM,28.9,19.9,69,30.07,10.0,West,6.9,-,N/A,,Clear,280,2012-02-17 13:53:00
7:53 AM,32.0,21.0,64,30.09,10.0,WSW,4.6,-,N/A,,Clear,250,2012-02-17 14:53:00
8:53 AM,37.9,21.9,53,30.10,10.0,West,3.5,-,N/A,,Clear,260,2012-02-17 15:53:00
9:53 AM,41.0,21.9,47,30.10,10.0,NNW,4.6,-,N/A,,Clear,330,2012-02-17 16:53:00
10:53 AM,46.0,21.9,39,30.09,10.0,North,4.6,-,N/A,,Clear,350,2012-02-17 17:53:00
11:53 AM,50.0,19.9,31,30.07,10.0,North,4.6,-,N/A,,Clear,360,2012-02-17 18:53:00
12:53 PM,52.0,16.0,24,30.03,10.0,Variable,4.6,-,N/A,,Clear,0,2012-02-17 19:53:00
1:53 PM,53.6,12.2,19,30.08,10.0,Variable,3.5,-,N/A,,Clear,0,2012-02-17 20:53:00
2:53 PM,55.0,7.0,15,29.99,10.0,NW,11.5,20.7,N/A,,Clear,320,2012-02-17 21:53:00
3:53 PM,55.0,-0.9,10,29.98,10.0,North,8.1,-,N/A,,Clear,350,2012-02-17 22:53:00
4:53 PM,55.4,8.6,15,30.05,10.0,NW,9.2,-,N/A,,Clear,320,2012-02-17 23:53:00
5:53 PM,52.0,7.0,16,29.98,10.0,NW,5.8,-,N/A,,Clear,310,2012-02-18 00:53:00
6:53 PM,46.0,12.0,25,30.03,10.0,West,6.9,-,N/A,,Clear,260,2012-02-18 01:53:00
7:53 PM,43.0,12.9,30,30.04,10.0,NW,9.2,-,N/A,,Clear,320,2012-02-18 02:53:00
8:53 PM,37.4,15.8,41,30.11,10.0,Calm,Calm,-,N/A,,Clear,0,2012-02-18 03:53:00
9:53 PM,36.0,12.9,39,30.08,10.0,West,5.8,-,N/A,,Clear,280,2012-02-18 04:53:00
10:53 PM,37.0,15.1,41,30.06,10.0,West,3.5,-,N/A,,Clear,280,2012-02-18 05:53:00
11:53 PM,30.9,17.1,57,30.06,10.0,South,4.6,-,N/A,,Clear,190,2012-02-18 06:53:00